DELTA 1 DEB, 13524

Orbit data source: Space-Track

DELTA 1 DEB, 13524 is space debris in SSO originally from a launch on Tue, 06 Nov 1973 UTC launched from the Air Force Western Test Range (AFWTR). Debris objects in space refer to the collection of defunct objects orbiting the Earth. Examples of debris include non-operational satellites, rocket bodies, and fragments generated from explosions, collisions, or faulty payload assembly.

Loading next visibility...
Identifier
13524, 1973-086GM
Orbit
SSO
Country
Flag of USUS
Related business
Manufacturer
Unknown
Mission
Spacecraft
Bus & Motor
Unknown
Mass
Unknown
Launch date (UTC)
1973-11-06 (52 years ago)
Launch vehicle
Unknown
Launch site
Air Force Western Test Range (AFWTR)
Object type
Payload
Rocket body
Debris
Shape & HBR
Unknown shape, 1.1 m
Radar Cross Section
Small (<0.1 m²)

Expand to show TLE details & history
Last TLE update: 2 days ago

TLE from 2 days ago
0 DELTA 1 DEB
1 13524U 73086GM  25345.50511845  .00000212  00000-0  17563-2 0  9996
2 13524 102.8646 335.8510 0045829  27.8495 101.7027 12.48340830 53315
Epoch: 2025-12-11T12:07Z
TLE epoch observation values (Epoch: 2025-12-11T12:07:22.234Z)
Latitude
48.34653°
Longitude
-91.64912°
Altitude
1,486.192 km
Speed
7.122 km/s
True Right ascension
11h 22m 36s
True Declination
48° 11' 29"
Sunlit
Object was in daylight at epoch
Visualization orbit readout
Latitude
Unknown
Longitude
Unknown
Altitude
Unknown
Speed
Unknown
Apparent Right ascension
Unknown
Apparent Declination
Unknown
Sunlit
N/A
Visualization observer readout
Local Sidereal Time
12:04:44
Azimuth
Unknown
Elevation
Unknown
Doppler factor
Unknown
Orbital elements
Apogee altitude
1,505.023 km
Perigee altitude
1,433.097 km
Semi-major axis
7,847.197 km
Eccentricity
0.00458
Inclination
102.8646°
RAAN
335.851°
Arg. of periapsis
27.8495°
True anomaly
102.21634°
Mean anomaly
101.7027°
Eccentric anomaly
101.95958°
Mean motion
3.12228 °/min
Orbital period
115.3 mins
BSTAR
0.0017563
Loading maneuver chart data...
Computing Atmospheric mass density...
Loading historical data...
Loading historical data...
Loading historical data...
Loading historical data...
Loading historical data...
Loading historical data...
Loading historical data...

Documentation

Showing up to 5 results
|